Location: Allos
(44.2333°N, 6.6333°E)
Time: 16:29:08
(UTC+00:00)

SL-16 R/B - Pass Details

Date: 01 December 2020
Orbit: 841 x 849 km, 71.0° (Epoch: 22 January)

Event Time Altitude Azimuth Distance (km) Brightness Sun altitude
Rises 16:49:45 0° 211° (SSW) 3,384 6.3 -9.5°
Reaches altitude 10° 16:52:12 10° 214° (SSW) 2,452 5.5 -9.9°
Maximum altitude 16:57:48 69° 297° (WNW) 901 2.5 -10.9°
Drops below altitude 10° 17:03:27 10° 21° (NNE) 2,467 4.3 -11.8°
Enters shadow 17:05:01 - 23° (NNE) 3,062 4.7 -12.1°
